Year,Month,Day,Hour,Minute,Value (Times are PST for temperature in C)
2015,07,10,00,00,21.20
2015,07,10,00,01,21.20
2015,07,10,00,02,21.20
2015,07,10,00,03,21.20
2015,07,10,00,04,21.20
2015,07,10,00,05,21.20
2015,07,10,00,06,21.20
2015,07,10,00,07,21.10
2015,07,10,00,08,21.10
2015,07,10,00,09,21.10
2015,07,10,00,10,21.10
2015,07,10,00,11,21.10
2015,07,10,00,12,21.00
2015,07,10,00,13,21.00
2015,07,10,00,14,21.00
2015,07,10,00,15,20.90
2015,07,10,00,16,20.90
2015,07,10,00,17,20.90
2015,07,10,00,18,21.00
2015,07,10,00,19,21.00
2015,07,10,00,20,21.00
2015,07,10,00,21,21.10
2015,07,10,00,22,21.10
2015,07,10,00,23,21.20
2015,07,10,00,24,21.20
2015,07,10,00,25,21.20
2015,07,10,00,26,21.20
2015,07,10,00,27,21.20
2015,07,10,00,28,21.20
2015,07,10,00,29,21.20
2015,07,10,00,30,21.20
2015,07,10,00,31,21.20
2015,07,10,00,32,21.20
2015,07,10,00,33,21.20
2015,07,10,00,34,21.20
2015,07,10,00,35,21.20
2015,07,10,00,36,21.20
2015,07,10,00,37,21.20
2015,07,10,00,38,21.10
2015,07,10,00,39,21.10
2015,07,10,00,40,21.10
2015,07,10,00,41,21.00
2015,07,10,00,42,21.00
2015,07,10,00,43,20.90
2015,07,10,00,44,20.90
2015,07,10,00,45,20.80
2015,07,10,00,46,20.80
2015,07,10,00,47,20.70
2015,07,10,00,48,20.60
2015,07,10,00,49,20.50
2015,07,10,00,50,20.40
2015,07,10,00,51,20.30
2015,07,10,00,52,20.30
2015,07,10,00,53,20.20
2015,07,10,00,54,20.20
2015,07,10,00,55,20.20
2015,07,10,00,56,20.10
2015,07,10,00,57,20.10
2015,07,10,00,58,20.10
2015,07,10,00,59,20.10
2015,07,10,01,00,20.10
2015,07,10,01,01,20.10
2015,07,10,01,02,20.10
2015,07,10,01,03,20.00
2015,07,10,01,04,20.00
2015,07,10,01,05,19.90
2015,07,10,01,06,19.90
2015,07,10,01,07,19.80
2015,07,10,01,08,19.80
2015,07,10,01,09,19.80
2015,07,10,01,10,19.80
2015,07,10,01,11,19.80
2015,07,10,01,12,19.80
2015,07,10,01,13,19.80
2015,07,10,01,14,19.80
2015,07,10,01,15,19.70
2015,07,10,01,16,19.70
2015,07,10,01,17,19.70
2015,07,10,01,18,19.60
2015,07,10,01,19,19.60
2015,07,10,01,20,19.60
2015,07,10,01,21,19.60
2015,07,10,01,22,19.60
2015,07,10,01,23,19.60
2015,07,10,01,24,19.70
2015,07,10,01,25,19.70
2015,07,10,01,26,19.70
2015,07,10,01,27,19.70
2015,07,10,01,28,19.70
2015,07,10,01,29,19.70
2015,07,10,01,30,19.70
2015,07,10,01,31,19.70
2015,07,10,01,32,19.70
2015,07,10,01,33,19.70
2015,07,10,01,34,19.60
2015,07,10,01,35,19.60
2015,07,10,01,36,19.60
2015,07,10,01,37,19.60
2015,07,10,01,38,19.50
2015,07,10,01,39,19.40
2015,07,10,01,40,19.40
2015,07,10,01,41,19.30
2015,07,10,01,42,19.30
2015,07,10,01,43,19.20
2015,07,10,01,44,19.20
2015,07,10,01,45,19.10
2015,07,10,01,46,19.10
2015,07,10,01,47,19.10
2015,07,10,01,48,19.10
2015,07,10,01,49,19.00
2015,07,10,01,50,19.00
2015,07,10,01,51,19.00
2015,07,10,01,52,18.90
2015,07,10,01,53,18.90
2015,07,10,01,54,18.90
2015,07,10,01,55,18.80
2015,07,10,01,56,18.80
2015,07,10,01,57,18.80
2015,07,10,01,58,18.70
2015,07,10,01,59,18.70
2015,07,10,02,00,18.60
2015,07,10,02,01,18.60
2015,07,10,02,02,18.50
2015,07,10,02,03,18.50
2015,07,10,02,04,18.50
2015,07,10,02,05,18.40
2015,07,10,02,06,18.40
2015,07,10,02,07,18.40
2015,07,10,02,08,18.40
2015,07,10,02,09,18.40
2015,07,10,02,10,18.40
2015,07,10,02,11,18.50
2015,07,10,02,12,18.50
2015,07,10,02,13,18.60
2015,07,10,02,14,18.70
2015,07,10,02,15,18.70
2015,07,10,02,16,18.70
2015,07,10,02,17,18.70
2015,07,10,02,18,18.70
2015,07,10,02,19,18.70
2015,07,10,02,20,18.70
2015,07,10,02,21,18.70
2015,07,10,02,22,18.70
2015,07,10,02,23,18.70
2015,07,10,02,24,18.70
2015,07,10,02,25,18.60
2015,07,10,02,26,18.60
2015,07,10,02,27,18.60
2015,07,10,02,28,18.50
2015,07,10,02,29,18.50
2015,07,10,02,30,18.50
2015,07,10,02,31,18.50
2015,07,10,02,32,18.50
2015,07,10,02,33,18.50
2015,07,10,02,34,18.40
2015,07,10,02,35,18.40
2015,07,10,02,36,18.30
2015,07,10,02,37,18.30
2015,07,10,02,38,18.30
2015,07,10,02,39,18.30
2015,07,10,02,40,18.20
2015,07,10,02,41,18.20
2015,07,10,02,42,18.20
2015,07,10,02,43,18.20
2015,07,10,02,44,18.10
2015,07,10,02,45,18.10
2015,07,10,02,46,18.00
2015,07,10,02,47,18.00
2015,07,10,02,48,17.90
2015,07,10,02,49,17.90
2015,07,10,02,50,17.80
2015,07,10,02,51,17.80
2015,07,10,02,52,17.80
2015,07,10,02,53,17.80
2015,07,10,02,54,17.70
2015,07,10,02,55,17.70
2015,07,10,02,56,17.70
2015,07,10,02,57,17.70
2015,07,10,02,58,17.70
2015,07,10,02,59,17.70
2015,07,10,03,00,17.70
2015,07,10,03,01,17.60
2015,07,10,03,02,17.60
2015,07,10,03,03,17.60
2015,07,10,03,04,17.60
2015,07,10,03,05,17.60
2015,07,10,03,06,17.50
2015,07,10,03,07,17.50
2015,07,10,03,08,17.40
2015,07,10,03,09,17.30
2015,07,10,03,10,17.30
2015,07,10,03,11,17.20
2015,07,10,03,12,17.10
2015,07,10,03,13,17.10
2015,07,10,03,14,17.00
2015,07,10,03,15,17.00
2015,07,10,03,16,16.90
2015,07,10,03,17,16.90
2015,07,10,03,18,16.90
2015,07,10,03,19,16.90
2015,07,10,03,20,16.90
2015,07,10,03,21,16.90
2015,07,10,03,22,16.90
2015,07,10,03,23,17.00
2015,07,10,03,24,17.00
2015,07,10,03,25,17.00
2015,07,10,03,26,17.10
2015,07,10,03,27,17.10
2015,07,10,03,28,17.10
2015,07,10,03,29,17.10
2015,07,10,03,30,17.10
2015,07,10,03,31,17.10
2015,07,10,03,32,17.20
2015,07,10,03,33,17.20
2015,07,10,03,34,17.20
2015,07,10,03,35,17.20
2015,07,10,03,36,17.20
2015,07,10,03,37,17.30
2015,07,10,03,38,17.40
2015,07,10,03,39,17.40
2015,07,10,03,40,17.50
2015,07,10,03,41,17.60
2015,07,10,03,42,17.60
2015,07,10,03,43,17.60
2015,07,10,03,44,17.60
2015,07,10,03,45,17.60
2015,07,10,03,46,17.60
2015,07,10,03,47,17.60
2015,07,10,03,48,17.70
2015,07,10,03,49,17.70
2015,07,10,03,50,17.70
2015,07,10,03,51,17.70
2015,07,10,03,52,17.80
2015,07,10,03,53,17.80
2015,07,10,03,54,17.80
2015,07,10,03,55,17.90
2015,07,10,03,56,17.90
2015,07,10,03,57,18.00
2015,07,10,03,58,18.00
2015,07,10,03,59,18.10
2015,07,10,04,00,18.10
2015,07,10,04,01,18.10
2015,07,10,04,02,18.10
2015,07,10,04,03,18.10
2015,07,10,05,02,16.80
2015,07,10,05,03,16.80
2015,07,10,05,04,16.80
2015,07,10,05,05,16.80
2015,07,10,05,06,16.70
2015,07,10,05,07,16.70
2015,07,10,05,08,16.70
2015,07,10,05,09,16.70
2015,07,10,05,10,16.60
2015,07,10,05,11,16.60
2015,07,10,05,12,16.60
2015,07,10,05,13,16.50
2015,07,10,05,14,16.50
2015,07,10,05,15,16.40
2015,07,10,05,16,16.40
2015,07,10,05,17,16.30
2015,07,10,05,18,16.30
2015,07,10,05,19,16.30
2015,07,10,05,20,16.30
2015,07,10,05,21,16.40
2015,07,10,05,22,16.40
2015,07,10,05,23,16.50
2015,07,10,05,24,16.50
2015,07,10,05,25,16.60
2015,07,10,05,26,16.70
2015,07,10,05,27,16.70
2015,07,10,05,28,16.70
2015,07,10,05,29,16.70
2015,07,10,05,30,16.70
2015,07,10,05,31,16.70
2015,07,10,05,32,16.70
2015,07,10,05,33,16.60
2015,07,10,05,34,16.60
2015,07,10,05,35,16.60
2015,07,10,05,36,16.60
2015,07,10,05,37,16.50
2015,07,10,05,38,16.50
2015,07,10,05,39,16.50
2015,07,10,05,40,16.50
2015,07,10,05,41,16.40
2015,07,10,05,42,16.50
2015,07,10,05,43,16.60
2015,07,10,05,44,16.60
2015,07,10,05,45,16.60
2015,07,10,05,46,16.70
2015,07,10,05,47,16.70
2015,07,10,05,48,16.70
2015,07,10,05,49,16.70
2015,07,10,05,50,16.70
2015,07,10,05,51,16.70
2015,07,10,05,52,16.70
2015,07,10,05,53,16.80
2015,07,10,05,54,16.80
2015,07,10,05,55,16.80
2015,07,10,05,56,16.80
2015,07,10,05,57,16.80
2015,07,10,05,58,16.80
2015,07,10,05,59,16.70
2015,07,10,06,00,16.70
2015,07,10,06,01,16.70
2015,07,10,06,02,16.70
2015,07,10,06,03,16.70
2015,07,10,06,04,16.70
2015,07,10,06,05,16.70
2015,07,10,06,06,16.60
2015,07,10,06,07,16.50
2015,07,10,06,08,16.50
2015,07,10,06,09,16.40
2015,07,10,06,10,16.30
2015,07,10,06,11,16.20
2015,07,10,06,12,16.10
2015,07,10,06,13,16.00
2015,07,10,06,14,15.90
2015,07,10,06,15,15.80
2015,07,10,06,16,15.80
2015,07,10,06,17,15.70
2015,07,10,06,18,15.60
2015,07,10,06,19,15.50
2015,07,10,06,20,15.50
2015,07,10,06,21,15.40
2015,07,10,06,22,15.40
2015,07,10,06,23,15.30
2015,07,10,06,24,15.30
2015,07,10,06,25,15.30
2015,07,10,06,26,15.30
2015,07,10,06,27,15.30
2015,07,10,06,28,15.30
2015,07,10,06,29,15.30
2015,07,10,06,30,15.30
2015,07,10,06,31,15.30
2015,07,10,06,32,15.30
2015,07,10,06,33,15.40
2015,07,10,06,34,15.40
2015,07,10,06,35,15.40
2015,07,10,06,36,15.50
2015,07,10,06,37,15.60
2015,07,10,06,38,15.70
2015,07,10,06,39,15.80
2015,07,10,06,40,15.90
2015,07,10,06,41,16.00
2015,07,10,06,42,16.10
2015,07,10,06,43,16.20
2015,07,10,06,44,16.30
2015,07,10,06,45,16.50
2015,07,10,06,46,16.60
2015,07,10,06,47,16.80
2015,07,10,06,48,16.90
2015,07,10,06,49,17.10
2015,07,10,06,50,17.20
2015,07,10,06,51,17.30
2015,07,10,06,52,17.40
2015,07,10,06,53,17.40
2015,07,10,06,54,17.50
2015,07,10,06,55,17.60
2015,07,10,06,56,17.60
2015,07,10,06,57,17.70
2015,07,10,06,58,17.70
2015,07,10,06,59,17.70
2015,07,10,07,00,17.70
2015,07,10,07,01,17.70
2015,07,10,07,02,17.70
2015,07,10,07,03,17.70
2015,07,10,07,04,17.70
2015,07,10,07,05,17.70
2015,07,10,07,06,17.60
2015,07,10,07,07,17.70
2015,07,10,07,08,17.70
2015,07,10,07,09,17.70
2015,07,10,07,10,17.70
2015,07,10,07,11,17.70
2015,07,10,07,12,17.70
2015,07,10,07,13,17.60
2015,07,10,07,14,17.60
2015,07,10,07,15,17.60
2015,07,10,07,16,17.60
2015,07,10,07,17,17.50
2015,07,10,07,18,17.50
2015,07,10,07,19,17.50
2015,07,10,07,20,17.50
2015,07,10,07,21,17.60
2015,07,10,07,22,17.60
2015,07,10,07,23,17.60
2015,07,10,07,24,17.50
2015,07,10,07,25,17.50
2015,07,10,07,26,17.50
2015,07,10,07,27,17.50
2015,07,10,07,28,17.50
2015,07,10,07,29,17.50
2015,07,10,07,30,17.40
2015,07,10,07,31,17.40
2015,07,10,07,32,17.40
2015,07,10,07,33,17.40
2015,07,10,07,34,17.40
2015,07,10,07,35,17.40
2015,07,10,07,36,17.30
2015,07,10,07,37,17.30
2015,07,10,07,38,17.30
2015,07,10,07,39,17.30
2015,07,10,07,40,17.30
2015,07,10,07,41,17.30
2015,07,10,07,42,17.30
2015,07,10,07,43,17.30
2015,07,10,07,44,17.30
2015,07,10,07,45,17.30
2015,07,10,07,46,17.30
2015,07,10,07,47,17.30
2015,07,10,07,48,17.30
2015,07,10,07,49,17.30
2015,07,10,07,50,17.30
2015,07,10,07,51,17.30
2015,07,10,07,52,17.30
2015,07,10,07,53,17.30
2015,07,10,07,54,17.20
2015,07,10,07,55,17.20
2015,07,10,07,56,17.20
2015,07,10,07,57,17.30
2015,07,10,07,58,17.30
2015,07,10,07,59,17.30
2015,07,10,08,00,17.30
2015,07,10,08,01,17.30
2015,07,10,08,02,17.30
2015,07,10,08,03,17.30
2015,07,10,08,04,17.30
2015,07,10,08,05,17.40
2015,07,10,08,06,17.40
2015,07,10,08,07,17.40
2015,07,10,08,08,17.40
2015,07,10,08,09,17.40
2015,07,10,08,10,17.50
2015,07,10,08,11,17.50
2015,07,10,08,12,17.60
2015,07,10,08,13,17.60
2015,07,10,08,14,17.60
2015,07,10,08,15,17.60
2015,07,10,08,16,17.60
2015,07,10,08,17,17.60
2015,07,10,08,18,17.60
2015,07,10,08,19,17.60
2015,07,10,08,20,17.60
2015,07,10,08,21,17.70
2015,07,10,08,22,17.70
2015,07,10,08,23,17.70
2015,07,10,08,24,17.70
2015,07,10,08,25,17.70
2015,07,10,08,26,17.70
2015,07,10,08,27,17.70
2015,07,10,08,28,17.70
2015,07,10,08,29,17.70
2015,07,10,08,30,17.70
2015,07,10,08,31,17.70
2015,07,10,08,32,17.70
2015,07,10,08,33,17.70
2015,07,10,08,34,17.70
2015,07,10,08,35,17.70
2015,07,10,08,36,17.70
2015,07,10,08,37,17.70
2015,07,10,08,38,17.80
2015,07,10,08,39,17.70
2015,07,10,08,40,17.70
2015,07,10,08,41,17.80
2015,07,10,08,42,17.70
2015,07,10,08,43,17.70
2015,07,10,08,44,17.70
2015,07,10,08,45,17.70
2015,07,10,08,46,17.70
2015,07,10,08,47,17.70
2015,07,10,08,48,17.70
2015,07,10,08,49,17.70
2015,07,10,08,50,17.70
2015,07,10,08,51,17.80
2015,07,10,08,52,17.80
2015,07,10,08,53,17.70
2015,07,10,08,54,17.70
2015,07,10,08,55,17.70
2015,07,10,08,56,17.70
2015,07,10,08,57,17.70
2015,07,10,08,58,17.60
2015,07,10,08,59,17.60
2015,07,10,09,00,17.60
2015,07,10,09,01,17.60
2015,07,10,09,02,17.60
2015,07,10,09,03,17.70
2015,07,10,09,04,17.70
2015,07,10,09,05,17.70
2015,07,10,09,06,17.70
2015,07,10,09,07,17.70
2015,07,10,09,08,17.70
2015,07,10,09,09,17.70
2015,07,10,09,10,17.70
2015,07,10,09,11,17.70
2015,07,10,09,12,17.80
2015,07,10,09,13,17.70
2015,07,10,09,14,17.70
2015,07,10,09,15,17.70
2015,07,10,09,16,17.70
2015,07,10,09,17,17.60
2015,07,10,09,18,17.60
2015,07,10,09,19,17.60
2015,07,10,09,20,17.50
2015,07,10,09,21,17.50
2015,07,10,09,22,17.40
2015,07,10,09,23,17.40
2015,07,10,09,24,17.40
2015,07,10,09,25,17.40
2015,07,10,09,26,17.30
2015,07,10,09,27,17.30
2015,07,10,09,28,17.40
2015,07,10,09,29,17.40
2015,07,10,09,30,17.40
2015,07,10,09,31,17.40
2015,07,10,09,32,17.40
2015,07,10,09,33,17.40
2015,07,10,09,34,17.50
2015,07,10,09,35,17.60
2015,07,10,09,36,17.60
2015,07,10,09,37,17.70
2015,07,10,09,38,17.70
2015,07,10,09,39,17.80
2015,07,10,09,40,17.90
2015,07,10,09,41,17.90
2015,07,10,09,42,17.90
2015,07,10,09,43,17.90
2015,07,10,09,44,17.90
2015,07,10,09,45,17.90
2015,07,10,09,46,18.00
2015,07,10,09,47,17.90
2015,07,10,09,48,17.70
2015,07,10,09,49,17.70
2015,07,10,09,50,17.60
2015,07,10,09,51,17.60
2015,07,10,09,52,17.60
2015,07,10,09,53,17.60
2015,07,10,09,54,17.60
2015,07,10,09,55,17.60
2015,07,10,09,56,17.70
2015,07,10,09,57,17.70
2015,07,10,09,58,17.70
2015,07,10,09,59,17.80
2015,07,10,10,00,17.80
2015,07,10,10,01,17.80
2015,07,10,10,02,17.80
2015,07,10,10,03,17.80
2015,07,10,10,04,17.80
2015,07,10,10,05,17.80
2015,07,10,10,06,17.80
2015,07,10,10,07,17.80
2015,07,10,10,08,17.80
2015,07,10,10,09,17.80
2015,07,10,10,10,17.80
2015,07,10,10,11,17.80
2015,07,10,10,12,17.70
2015,07,10,10,13,17.70
2015,07,10,10,14,17.60
2015,07,10,10,15,17.70
2015,07,10,10,16,17.70
2015,07,10,10,17,17.70
2015,07,10,10,18,17.60
2015,07,10,10,19,17.60
2015,07,10,10,20,17.60
2015,07,10,10,21,17.60
2015,07,10,10,22,17.60
2015,07,10,10,23,17.50
2015,07,10,10,24,17.50
2015,07,10,10,25,17.40
2015,07,10,10,26,17.50
2015,07,10,10,27,17.60
2015,07,10,10,28,17.70
2015,07,10,10,29,17.70
2015,07,10,10,30,17.80
2015,07,10,10,31,17.80
2015,07,10,10,32,17.70
2015,07,10,10,33,17.70
2015,07,10,10,34,17.80
2015,07,10,10,35,17.90
2015,07,10,10,36,17.90
2015,07,10,10,37,17.90
2015,07,10,10,38,17.80
2015,07,10,10,39,17.80
2015,07,10,10,40,17.80
2015,07,10,10,41,17.80
2015,07,10,10,42,17.90
2015,07,10,10,43,17.90
2015,07,10,10,44,18.00
2015,07,10,10,45,18.00
2015,07,10,10,46,18.00
2015,07,10,10,47,17.90
2015,07,10,10,48,17.80
2015,07,10,10,49,17.70
2015,07,10,10,50,17.70
2015,07,10,10,51,17.70
2015,07,10,10,52,17.60
2015,07,10,10,53,17.60
2015,07,10,10,54,17.60
2015,07,10,10,55,17.60
2015,07,10,10,56,17.70
2015,07,10,10,57,17.70
2015,07,10,10,58,17.70
2015,07,10,10,59,17.70
2015,07,10,11,00,17.70
2015,07,10,11,01,17.70
2015,07,10,11,02,17.70
2015,07,10,11,03,17.70
2015,07,10,11,04,17.70
2015,07,10,11,05,17.70
2015,07,10,11,06,17.70
2015,07,10,11,07,17.70
2015,07,10,11,08,17.80
2015,07,10,11,09,17.80
2015,07,10,11,10,17.90
2015,07,10,11,11,17.90
2015,07,10,11,12,18.00
2015,07,10,11,13,18.10
2015,07,10,11,14,18.10
2015,07,10,11,15,18.10
2015,07,10,11,16,18.10
2015,07,10,11,17,18.20
2015,07,10,11,18,18.30
2015,07,10,11,19,18.30
2015,07,10,11,20,18.30
2015,07,10,11,21,18.20
2015,07,10,11,22,18.10
2015,07,10,11,23,18.00
2015,07,10,11,24,18.00
2015,07,10,11,25,18.00
2015,07,10,11,26,18.00
2015,07,10,11,27,18.10
2015,07,10,11,28,18.00
2015,07,10,11,29,18.00
2015,07,10,11,30,18.00
2015,07,10,11,31,18.10
2015,07,10,11,32,18.20
2015,07,10,11,33,18.20
2015,07,10,11,34,18.20
2015,07,10,11,35,18.20
2015,07,10,11,36,18.10
2015,07,10,11,37,18.10
2015,07,10,11,38,18.10
2015,07,10,11,39,18.20
2015,07,10,11,40,18.20
2015,07,10,11,41,18.20
2015,07,10,11,42,18.20
2015,07,10,11,43,18.10
2015,07,10,11,44,18.10
2015,07,10,11,45,18.10
2015,07,10,11,46,18.10
2015,07,10,11,47,18.10
2015,07,10,11,48,18.20
2015,07,10,11,49,18.10
2015,07,10,11,50,18.10
2015,07,10,11,51,18.10
2015,07,10,11,52,18.10
2015,07,10,11,53,18.10
2015,07,10,11,54,18.20
2015,07,10,11,55,18.30
2015,07,10,11,56,18.30
2015,07,10,11,57,18.30
2015,07,10,11,58,18.30
2015,07,10,11,59,18.30
2015,07,10,12,00,18.30
2015,07,10,12,01,18.40
2015,07,10,12,02,18.40
2015,07,10,12,03,18.40
2015,07,10,12,04,18.50
2015,07,10,12,05,18.50
2015,07,10,12,06,18.50
2015,07,10,12,07,18.50
2015,07,10,12,08,18.30
2015,07,10,12,09,18.30
2015,07,10,12,10,18.30
2015,07,10,12,11,18.40
2015,07,10,12,12,18.60
2015,07,10,12,13,18.70
2015,07,10,12,14,18.70
2015,07,10,12,15,18.60
2015,07,10,12,16,18.50
2015,07,10,12,17,18.40
2015,07,10,12,18,18.40
2015,07,10,12,19,18.40
2015,07,10,12,20,18.40
2015,07,10,12,21,18.50
2015,07,10,12,22,18.60
2015,07,10,12,23,18.70
2015,07,10,12,24,18.70
2015,07,10,12,25,18.60
2015,07,10,12,26,18.60
2015,07,10,12,27,18.40
2015,07,10,12,28,18.40
2015,07,10,12,29,18.40
2015,07,10,12,30,18.50
2015,07,10,12,31,18.50
2015,07,10,12,32,18.50
2015,07,10,12,33,18.40
2015,07,10,12,34,18.40
2015,07,10,12,35,18.40
2015,07,10,12,36,18.50
2015,07,10,12,37,18.50
2015,07,10,12,38,18.50
2015,07,10,12,39,18.50
2015,07,10,12,40,18.40
2015,07,10,12,41,18.40
2015,07,10,12,42,18.40
2015,07,10,12,43,18.40
2015,07,10,12,44,18.40
2015,07,10,12,45,18.50
2015,07,10,12,46,18.60
2015,07,10,12,47,18.60
2015,07,10,12,48,18.60
2015,07,10,12,49,18.60
2015,07,10,12,50,18.50
2015,07,10,12,51,18.50
2015,07,10,12,52,18.50
2015,07,10,12,53,18.40
2015,07,10,12,54,18.40
2015,07,10,12,55,18.40
2015,07,10,12,56,18.40
2015,07,10,12,57,18.40
2015,07,10,12,58,18.30
2015,07,10,12,59,18.30
2015,07,10,13,00,18.30
2015,07,10,13,01,18.30
2015,07,10,13,02,18.30
2015,07,10,13,03,18.40
2015,07,10,13,04,18.50
2015,07,10,13,05,18.60
2015,07,10,13,06,18.60
2015,07,10,13,07,18.60
2015,07,10,13,08,18.70
2015,07,10,13,09,18.70
2015,07,10,13,10,18.70
2015,07,10,13,11,18.80
2015,07,10,13,12,18.80
2015,07,10,13,13,18.80
2015,07,10,13,14,18.80
2015,07,10,13,15,18.70
2015,07,10,13,16,18.60
2015,07,10,13,17,18.50
2015,07,10,13,18,18.50
2015,07,10,13,19,18.50
2015,07,10,13,20,18.50
2015,07,10,13,21,18.40
2015,07,10,13,22,18.50
2015,07,10,13,23,18.50
2015,07,10,13,24,18.50
2015,07,10,13,25,18.50
2015,07,10,13,26,18.50
2015,07,10,13,27,18.50
2015,07,10,13,28,18.50
2015,07,10,13,29,18.60
2015,07,10,13,30,18.60
2015,07,10,13,31,18.60
2015,07,10,13,32,18.80
2015,07,10,13,33,18.90
2015,07,10,13,34,18.80
2015,07,10,13,35,18.80
2015,07,10,13,36,18.70
2015,07,10,13,37,18.60
2015,07,10,13,38,18.60
2015,07,10,13,39,18.50
2015,07,10,13,40,18.50
2015,07,10,13,41,18.50
2015,07,10,13,42,18.50
2015,07,10,13,43,18.50
2015,07,10,13,44,18.40
2015,07,10,13,45,18.40
2015,07,10,13,46,18.40
2015,07,10,13,47,18.40
2015,07,10,13,48,18.50
2015,07,10,13,49,18.50
2015,07,10,13,50,18.50
2015,07,10,13,51,18.40
2015,07,10,13,52,18.50
2015,07,10,13,53,18.50
2015,07,10,13,54,18.50
2015,07,10,13,55,18.70
2015,07,10,13,56,18.80
2015,07,10,13,57,18.90
2015,07,10,13,58,19.00
2015,07,10,13,59,19.20
2015,07,10,14,00,19.30
2015,07,10,14,01,19.40
2015,07,10,14,02,19.50
2015,07,10,14,03,19.50
2015,07,10,14,04,19.40
2015,07,10,14,05,19.40
2015,07,10,14,06,19.50
2015,07,10,14,07,19.50
2015,07,10,14,08,19.50
2015,07,10,14,09,19.50
2015,07,10,14,10,19.60
2015,07,10,14,11,19.60
2015,07,10,14,12,19.60
2015,07,10,14,13,19.50
2015,07,10,14,14,19.50
2015,07,10,14,15,19.40
2015,07,10,14,16,19.30
2015,07,10,14,17,19.30
2015,07,10,14,18,19.30
2015,07,10,14,19,19.40
2015,07,10,14,20,19.30
2015,07,10,14,21,19.30
2015,07,10,14,22,19.30
2015,07,10,14,23,19.40
2015,07,10,14,24,19.50
2015,07,10,14,25,19.50
2015,07,10,14,26,19.50
2015,07,10,14,27,19.40
2015,07,10,14,28,19.30
2015,07,10,14,29,19.20
2015,07,10,14,30,19.20
2015,07,10,14,31,19.30
2015,07,10,14,32,19.20
2015,07,10,14,33,19.20
2015,07,10,14,34,19.20
2015,07,10,14,35,19.10
2015,07,10,14,36,19.00
2015,07,10,14,37,18.90
2015,07,10,14,38,19.00
2015,07,10,14,39,19.00
2015,07,10,14,40,19.10
2015,07,10,14,41,19.10
2015,07,10,14,42,19.20
2015,07,10,14,43,19.30
2015,07,10,14,44,19.30
2015,07,10,14,45,19.40
2015,07,10,14,46,19.40
2015,07,10,14,47,19.40
2015,07,10,14,48,19.40
2015,07,10,14,49,19.30
2015,07,10,14,50,19.30
2015,07,10,14,51,19.30
2015,07,10,14,52,19.30
2015,07,10,14,53,19.30
2015,07,10,14,54,19.20
2015,07,10,14,55,19.20
2015,07,10,14,56,19.20
2015,07,10,14,57,19.20
2015,07,10,14,58,19.10
2015,07,10,14,59,19.20
2015,07,10,15,00,19.20
2015,07,10,15,01,19.30
2015,07,10,15,02,19.30
2015,07,10,15,03,19.40
2015,07,10,15,04,19.30
2015,07,10,15,05,19.20
2015,07,10,15,06,19.20
2015,07,10,15,07,19.20
2015,07,10,15,08,19.30
2015,07,10,15,09,19.40
2015,07,10,15,10,19.40
2015,07,10,15,11,19.30
2015,07,10,15,12,19.20
2015,07,10,15,13,19.10
2015,07,10,15,14,19.20
2015,07,10,15,15,19.20
2015,07,10,15,16,19.30
2015,07,10,15,17,19.30
2015,07,10,15,18,19.30
2015,07,10,15,19,19.20
2015,07,10,15,20,19.20
2015,07,10,15,21,19.30
2015,07,10,15,22,19.40
2015,07,10,15,23,19.40
2015,07,10,15,24,19.20
2015,07,10,15,25,19.20
2015,07,10,15,26,19.10
2015,07,10,15,27,19.10
2015,07,10,15,28,19.00
2015,07,10,15,29,18.90
2015,07,10,15,30,18.80
2015,07,10,15,31,18.80
2015,07,10,15,32,18.80
2015,07,10,15,33,18.80
2015,07,10,15,34,18.80
2015,07,10,15,35,18.80
2015,07,10,15,36,18.90
2015,07,10,15,37,18.90
2015,07,10,15,38,18.80
2015,07,10,15,39,18.80
2015,07,10,15,40,18.80
2015,07,10,15,41,18.70
2015,07,10,15,42,18.60
2015,07,10,15,43,18.50
2015,07,10,15,44,18.40
2015,07,10,15,45,18.40
2015,07,10,15,46,18.30
2015,07,10,15,47,18.30
2015,07,10,15,48,18.30
2015,07,10,15,49,18.20
2015,07,10,15,50,18.20
2015,07,10,15,51,18.20
2015,07,10,15,52,18.30
2015,07,10,15,53,18.30
2015,07,10,15,54,18.40
2015,07,10,15,55,18.40
2015,07,10,15,56,18.50
2015,07,10,15,57,18.60
2015,07,10,15,58,18.60
2015,07,10,15,59,18.60
2015,07,10,16,00,18.60
2015,07,10,16,01,18.70
2015,07,10,16,02,18.70
2015,07,10,16,03,18.60
2015,07,10,16,04,18.60
2015,07,10,16,05,18.60
2015,07,10,16,06,18.70
2015,07,10,16,07,18.80
2015,07,10,16,08,18.80
2015,07,10,16,09,18.80
2015,07,10,16,10,18.80
2015,07,10,16,11,18.70
2015,07,10,16,12,18.60
2015,07,10,16,13,18.70
2015,07,10,16,14,18.60
2015,07,10,16,15,18.60
2015,07,10,16,16,18.60
2015,07,10,16,17,18.60
2015,07,10,16,18,18.60
2015,07,10,16,19,18.50
2015,07,10,16,20,18.50
2015,07,10,16,21,18.60
2015,07,10,16,22,18.70
2015,07,10,16,23,18.70
2015,07,10,16,24,18.70
2015,07,10,16,25,18.60
2015,07,10,16,26,18.60
2015,07,10,16,27,18.60
2015,07,10,16,28,18.70
2015,07,10,16,29,18.70
2015,07,10,16,30,18.70
2015,07,10,16,31,18.60
2015,07,10,16,32,18.60
2015,07,10,16,33,18.50
2015,07,10,16,34,18.50
2015,07,10,16,35,18.40
2015,07,10,16,36,18.40
2015,07,10,16,37,18.50
2015,07,10,16,38,18.50
2015,07,10,16,39,18.70
2015,07,10,16,40,18.80
2015,07,10,16,41,18.90
2015,07,10,16,42,18.80
2015,07,10,16,43,18.70
2015,07,10,16,44,18.70
2015,07,10,16,45,18.80
2015,07,10,16,46,18.70
2015,07,10,16,47,18.70
2015,07,10,16,48,18.70
2015,07,10,16,49,18.70
2015,07,10,16,50,18.70
2015,07,10,16,51,18.70
2015,07,10,16,52,18.80
2015,07,10,16,53,18.90
2015,07,10,16,54,18.90
2015,07,10,16,55,18.90
2015,07,10,16,56,18.90
2015,07,10,16,57,18.80
2015,07,10,16,58,18.80
2015,07,10,16,59,18.70
2015,07,10,17,00,18.70
2015,07,10,17,01,18.60
2015,07,10,17,02,18.70
2015,07,10,17,03,18.70
2015,07,10,17,04,18.80
2015,07,10,17,05,18.80
2015,07,10,17,06,18.80
2015,07,10,17,07,18.70
2015,07,10,17,08,18.70
2015,07,10,17,09,18.80
2015,07,10,17,10,18.80
2015,07,10,17,11,18.90
2015,07,10,17,12,18.90
2015,07,10,17,13,18.90
2015,07,10,17,14,18.80
2015,07,10,17,15,18.80
2015,07,10,17,16,18.80
2015,07,10,17,17,18.90
2015,07,10,17,18,19.00
2015,07,10,17,19,19.00
2015,07,10,17,20,19.10
2015,07,10,17,21,19.10
2015,07,10,17,22,19.10
2015,07,10,17,23,19.00
2015,07,10,17,24,19.00
2015,07,10,17,25,19.00
2015,07,10,17,26,19.00
2015,07,10,17,27,19.10
2015,07,10,17,28,19.10
2015,07,10,17,29,19.10
2015,07,10,17,30,19.10
2015,07,10,17,31,19.00
2015,07,10,17,32,19.00
2015,07,10,17,33,18.90
2015,07,10,17,34,18.90
2015,07,10,17,35,18.90
2015,07,10,17,36,19.00
2015,07,10,17,37,19.10
2015,07,10,17,38,19.10
2015,07,10,17,39,19.10
2015,07,10,17,40,19.10
2015,07,10,17,41,19.10
2015,07,10,17,42,19.00
2015,07,10,17,43,18.90
2015,07,10,17,44,18.80
2015,07,10,17,45,18.80
2015,07,10,17,46,18.70
2015,07,10,17,47,18.70
2015,07,10,17,48,18.70
2015,07,10,17,49,18.70
2015,07,10,17,50,18.70
2015,07,10,17,51,18.70
2015,07,10,17,52,18.70
2015,07,10,17,53,18.70
2015,07,10,17,54,18.70
2015,07,10,17,55,18.70
2015,07,10,17,56,18.70
2015,07,10,17,57,18.80
2015,07,10,17,58,18.80
2015,07,10,17,59,18.80
2015,07,10,18,00,18.90
2015,07,10,18,01,18.90
2015,07,10,18,02,19.00
2015,07,10,18,03,19.00
2015,07,10,18,04,19.10
2015,07,10,18,05,19.10
2015,07,10,18,06,19.00
2015,07,10,18,07,19.00
2015,07,10,18,08,19.00
2015,07,10,18,09,19.00
2015,07,10,18,10,19.10
2015,07,10,18,11,19.10
2015,07,10,18,12,19.10
2015,07,10,18,13,19.10
2015,07,10,18,14,19.00
2015,07,10,18,15,19.00
2015,07,10,18,16,18.90
2015,07,10,18,17,18.90